FW8536 Weather Reports


time (UTC)temp
F
wind
direction
speed
knots
gust
knots
rain 1hr
in
rain 24hr
in
rain mn
in
humidity
%
barometer
mb
20260504035051 61 355 13.9 21.7 0.00 0.00 0.00 38 989.4
20260504034551 62 11 16.5 27.8 0.00 0.00 0.00 37 989.2
20260504034047 63 360 19.1 30.4 0.00 0.00 0.00 36 989.2
20260504033047 64 360 14.8 25.2 0.00 0.00 0.00 36 988.4
20260504032545 63 360 11.3 15.6 0.00 0.00 0.00 37 988.0
20260504032045 63 360 10.4 13.9 0.00 0.00 0.00 37 988.0
20260504031603 63 360 11.3 15.6 0.00 0.00 0.00 37 987.9
20260504031043 63 360 11.3 16.5 0.00 0.00 0.00 37 987.9
20260504030543 64 360 11.3 16.5 0.00 0.00 0.00 37 988.0
20260504030043 64 360 11.3 15.6 0.00 0.00 0.00 37 988.0
20260504025540 64 284 10.4 13.9 0.00 0.00 0.00 37 987.9
20260504025039 64 360 9.6 13.9 0.00 0.00 0.00 36 987.8
20260504024542 65 288 9.6 13.0 0.00 0.00 0.00 36 987.7
20260504024037 66 265 11.3 15.6 0.00 0.00 0.00 35 987.7
20260504023036 66 279 11.3 17.4 0.00 0.00 0.00 34 987.8
20260504022538 67 287 12.2 19.1 0.00 0.00 0.00 33 987.6
20260504022034 67 292 13.0 19.1 0.00 0.00 0.00 32 987.7
20260504021533 68 292 12.2 20.0 0.00 0.00 0.00 30 987.7
20260504021031 68 281 13.0 19.1 0.00 0.00 0.00 29 987.7
20260504020530 69 265 12.2 20.0 0.00 0.00 0.00 28 987.6
20260504020030 70 292 13.9 25.2 0.00 0.00 0.00 27 987.5
20260504015528 70 360 19.1 25.2 0.00 0.00 0.00 26 987.5
20260504015028 70 267 13.9 22.6 0.00 0.00 0.00 26 987.4
20260504014526 71 253 16.5 22.6 0.00 0.00 0.00 25 987.3
20260504014026 71 260 14.8 22.6 0.00 0.00 0.00 25 987.3
20260504013026 71 254 15.6 26.1 0.00 0.00 0.00 24 987.4
20260504012524 71 247 13.9 20.9 0.00 0.00 0.00 24 987.5
20260504012023 72 252 14.8 24.3 0.00 0.00 0.00 24 987.6
20260504011523 72 260 15.6 24.3 0.00 0.00 0.00 23 987.7
20260504011021 72 257 18.2 24.3 0.00 0.00 0.00 23 987.7
20260504010523 72 256 18.2 24.3 0.00 0.00 0.00 23 987.8
20260504010021 72 265 17.4 25.2 0.00 0.00 0.00 23 987.8
20260504005520 73 256 17.4 25.2 0.00 0.00 0.00 23 987.8
20260504005020 73 245 19.1 29.5 0.00 0.00 0.00 24 987.8
20260504004522 73 360 20.0 29.5 0.00 0.00 0.00 25 987.9
20260504004019 73 246 17.4 25.2 0.00 0.00 0.00 26 988.0
20260504003018 73 252 19.1 26.1 0.00 0.00 0.00 26 987.9
20260504002517 74 249 18.2 26.1 0.00 0.00 0.00 25 988.0
20260504002016 74 238 16.5 25.2 0.00 0.00 0.00 25 988.2
20260504001516 74 238 17.4 27.8 0.00 0.00 0.00 25 988.3
20260504001017 74 240 20.9 27.8 0.00 0.00 0.00 25 988.3
20260504000515 74 252 19.1 30.4 0.00 0.00 0.00 25 988.5
20260504000015 74 260 22.6 30.4 0.00 0.00 0.00 24 988.4
20260503235513 74 267 22.6 30.4 0.00 0.00 0.00 24 988.7
20260503235013 74 266 20.9 33.0 0.00 0.00 0.00 25 988.7
20260503234513 74 247 25.2 33.0 0.00 0.00 0.00 25 988.8
20260503234012 74 237 19.1 26.9 0.00 0.00 0.00 25 988.7
20260503233012 74 261 18.2 29.5 0.00 0.00 0.00 24 989.1
20260503232511 75 246 22.6 26.9 0.00 0.00 0.00 23 989.1
20260503232011 74 240 16.5 30.4 0.00 0.00 0.00 24 989.2
20260503231516 74 246 21.7 30.4 0.00 0.00 0.00 23 989.3
20260503231010 75 244 20.0 27.8 0.00 0.00 0.00 23 989.5
20260503230509 75 267 18.2 28.7 0.00 0.00 0.00 22 989.5
20260503230008 75 259 18.2 28.7 0.00 0.00 0.00 21 989.6
20260503225506 75 269 21.7 28.7 0.00 0.00 0.00 20 989.8
20260503225009 75 243 19.1 26.1 0.00 0.00 0.00 20 989.7
20260503224505 74 287 17.4 26.1 0.00 0.00 0.00 20 989.9
20260503224005 74 288 17.4 26.9 0.00 0.00 0.00 21 990.0
20260503223004 73 254 16.5 26.9 0.00 0.00 0.00 20 990.2
20260503222503 74 270 20.0 26.9 0.00 0.00 0.00 22 990.2
20260503222004 74 255 17.4 26.9 0.00 0.00 0.00 23 990.3
20260503221502 73 265 18.2 26.9 0.00 0.00 0.00 24 990.5
20260503221001 73 250 17.4 25.2 0.00 0.00 0.00 24 990.4
20260503220502 73 260 19.1 25.2 0.00 0.00 0.00 22 990.6
20260503220000 73 360 17.4 26.1 0.00 0.00 0.00 25 990.4
20260503215500 73 257 19.1 30.4 0.00 0.00 0.00 27 990.5
20260503215201 74 251 20.9 31.3 0.00 0.00 0.00 24 990.7
20260503214559 74 274 23.5 31.3 0.00 0.00 0.00 25 990.7
20260503214059 74 260 20.0 27.8 0.00 0.00 0.00 25 990.8
20260503213133 74 266 21.7 28.7 0.00 0.00 0.00 23 991.0
20260503212601 74 268 23.5 28.7 0.00 0.00 0.00 24 991.0
20260503212100 74 263 20.9 27.8 0.00 0.00 0.00 23 991.3
20260503211620 73 271 20.0 26.9 0.00 0.00 0.00 26 991.3
20260503211054 73 258 17.4 26.9 0.00 0.00 0.00 27 991.4
20260503210555 74 246 19.1 26.9 0.00 0.00 0.00 25 991.5
20260503210054 74 223 19.1 27.8 0.00 0.00 0.00 27 991.5
20260503205553 74 259 20.0 27.8 0.00 0.00 0.00 27 991.5
20260503205052 73 242 20.9 29.5 0.00 0.00 0.00 28 991.6
20260503204603 74 230 20.0 29.5 0.00 0.00 0.00 28 991.6
20260503204051 75 254 20.9 29.5 0.00 0.00 0.00 26 991.6
20260503203049 75 259 19.1 28.7 0.00 0.00 0.00 27 992.0
20260503202547 75 240 20.0 30.4 0.00 0.00 0.00 29 992.1
20260503202051 75 236 20.0 30.4 0.00 0.00 0.00 28 992.3
20260503201545 74 231 20.0 27.8 0.00 0.00 0.00 27 992.4
20260503201045 74 238 17.4 28.7 0.00 0.00 0.00 27 992.6
20260503200545 74 232 23.5 28.7 0.00 0.00 0.00 29 992.5
20260503200045 73 238 19.1 25.2 0.00 0.00 0.00 29 992.8
20260503195544 73 236 16.5 28.7 0.00 0.00 0.00 30 992.9
20260503195043 74 244 21.7 28.7 0.00 0.00 0.00 28 992.9
20260503194543 74 243 18.2 26.9 0.00 0.00 0.00 27 993.1
20260503194042 73 239 17.4 26.9 0.00 0.00 0.00 29 993.2
20260503193042 73 360 17.4 27.8 0.00 0.00 0.00 30 993.4
20260503192541 73 257 19.1 29.5 0.00 0.00 0.00 30 993.6
20260503192039 73 240 20.9 29.5 0.00 0.00 0.00 28 993.8
20260503191555 73 252 18.2 27.8 0.00 0.00 0.00 29 993.9
20260503191038 74 238 20.9 27.8 0.00 0.00 0.00 27 994.0
20260503190537 73 240 17.4 26.1 0.00 0.00 0.00 27 994.0
20260503190038 72 244 18.2 31.3 0.00 0.00 0.00 29 994.2
20260503185537 72 247 17.4 26.9 0.00 0.00 0.00 29 994.3
20260503185037 72 245 20.0 26.9 0.00 0.00 0.00 30 994.8
20260503184536 72 246 18.2 23.5 0.00 0.00 0.00 29 994.6
20260503184036 71 245 19.1 28.7 0.00 0.00 0.00 31 994.5
20260503183041 71 244 20.0 28.7 0.00 0.00 0.00 31 995.1
20260503182533 71 250 14.8 25.2 0.00 0.00 0.00 31 995.1
20260503182032 71 251 17.4 24.3 0.00 0.00 0.00 31 995.3
20260503181532 71 240 16.5 20.9 0.00 0.00 0.00 30 995.1
20260503181033 71 228 15.6 24.3 0.00 0.00 0.00 31 995.3
20260503180530 71 238 16.5 25.2 0.00 0.00 0.00 31 995.4
20260503180033 71 209 17.4 25.2 0.00 0.00 0.00 29 995.5
20260503175529 70 240 12.2 22.6 0.00 0.00 0.00 32 995.5
20260503175028 70 260 17.4 27.8 0.00 0.00 0.00 31 995.7
20260503174537 70 223 18.2 26.1 0.00 0.00 0.00 31 995.9
20260503174027 70 214 16.5 24.3 0.00 0.00 0.00 32 996.3
20260503173027 69 236 20.0 28.7 0.00 0.00 0.00 31 996.4
20260503172525 69 257 18.2 24.3 0.00 0.00 0.00 31 996.4
20260503172024 69 279 13.9 22.6 0.00 0.00 0.00 31 996.5
20260503171529 69 266 15.6 22.6 0.00 0.00 0.00 31 996.8
20260503171029 69 216 11.3 21.7 0.00 0.00 0.00 32 996.7
20260503170523 69 219 13.9 25.2 0.00 0.00 0.00 32 996.9
20260503150516 64 241 14.8 22.6 0.00 0.00 0.00 35 998.7
20260503131008 42 360 5.2 7.8 0.00 0.00 0.00 65 999.6
20260503130515 41 360 6.1 7.8 0.00 0.00 0.00 65 999.5
20260503110554 43 360 6.1 8.7 0.00 0.00 0.00 57 1000.1
20260503081552 46 360 4.3 6.1 0.00 0.00 0.00 51 1000.9
20260503081036 46 360 5.2 6.1 0.00 0.00 0.00 51 1001.0
20260503080536 45 360 4.3 6.1 0.00 0.00 0.00 52 1000.9
20260503072534 48 360 2.6 4.3 0.00 0.00 0.00 47 1001.2
20260503072034 49 360 2.6 4.3 0.00 0.00 0.00 45 1001.3
20260503071556 50 360 1.7 2.6 0.00 0.00 0.00 44 1001.3
20260503071036 50 360 1.7 2.6 0.00 0.00 0.00 44 1001.3
20260503070535 50 360 0.9 2.6 0.00 0.00 0.00 45 1001.3
20260503055025 51 360 5.2 6.1 0.00 0.00 0.00 43 1001.2
20260503054533 52 360 5.2 6.1 0.00 0.00 0.00 43 1001.3
20260503054025 52 360 5.2 6.1 0.00 0.00 0.00 43 1001.3
20260503053026 52 360 5.2 6.1 0.00 0.00 0.00 43 1001.3
20260503052526 52 360 5.2 6.1 0.00 0.00 0.00 43 1001.2
20260503052026 51 360 5.2 6.1 0.00 0.00 0.00 44 1001.2
20260503051535 50 360 5.2 7.0 0.00 0.00 0.00 44 1001.2
20260503051027 50 360 6.1 7.0 0.00 0.00 0.00 45 1001.2
20260503050525 50 360 6.1 7.0 0.00 0.00 0.00 45 1001.3
20260503050025 50 360 5.2 6.1 0.00 0.00 0.00 45 1001.3
20260503045525 50 360 5.2 7.0 0.00 0.00 0.00 45 1001.2
20260503045030 50 360 5.2 7.0 0.00 0.00 0.00 45 1001.3
20260503044525 50 360 6.1 7.0 0.00 0.00 0.00 45 1001.3
20260503044024 50 360 5.2 7.0 0.00 0.00 0.00 45 1001.4
20260503043024 49 360 5.2 7.0 0.00 0.00 0.00 46 1001.2
20260503042523 49 360 6.1 7.0 0.00 0.00 0.00 46 1001.3
20260503042024 49 360 6.1 7.0 0.00 0.00 0.00 46 1001.4
20260503041529 49 360 6.1 7.8 0.00 0.00 0.00 47 1001.4
20260503041024 49 360 6.1 7.8 0.00 0.00 0.00 47 1001.3
20260503040527 48 360 6.1 7.8 0.00 0.00 0.00 47 1001.4
20260503040023 49 360 6.1 7.8 0.00 0.00 0.00 47 1001.4